Location: Lucerne Valley
(34.4439°N, 116.9669°E)
Time: 03:32:35
(UTC-07:00)

Tiangong 1 - Pass Details

Date: 12 October 2017
Orbit: 293 x 320 km, 42.8° (Epoch: 21 October)

Event Time Altitude Azimuth Distance (km) Brightness Sun altitude
Rises 03:04:51 0° 298° (WNW) 2,043 5.8 -5.5°
Reaches altitude 10° 03:07:29 10° 326° (NNW) 1,206 4.0 -6.1°
Maximum altitude 03:09:01 14° 1° (N) 1,011 3.1 -6.4°
Drops below altitude 10° 03:10:32 10° 36° (NE) 1,197 3.2 -6.7°
Enters shadow 03:11:35 - 51° (NE) 1,485 3.5 -6.9°
